SL-8 R/B

Satellite information

Favourite Embed

Satellite Type and Status

ROCKET BODYIN ORBIT

Key statistics

Satellite SL-8 R/B at a glance.

Uptime

12166

Days in orbit

Revolutions

≈ 13.8

Per day

Orbit

LEO

Low Earth Orbit

Inclination

82.9

Latest

Satellite identification and parameters

Extended collection of information and parameters for SL-8 R/B.

Object identification

Identified? True

Debris? False

Object name: SL-8 R/B

International designator: 1992-036B

Object number (NORAD): 22007

Object ID (CCSDS): 22007

Country: COMMONWEALTH OF INDEPENDENT STATES (CIS)

Current information (Y/N): Y

RCS size: LARGE

Orbital parameters

Period: 104.48 minutes

Inclination: 82.9352 deg

SMA: 7348.226 km

Apoapsis: 993.222 km

Periapsis: 946.96 km

RAAN: 187.9537 deg

Eccentricy: 0.0031478

Argument of periapsis: 55.4564 deg

Mean anomaly: 304.9558 deg

Mean motion: 13.78253168 rev/day

Mean motion (dot): 0.00000114 rev/day2

B* drag term: 0.000097095 1/REarth

Two-line elements (TLE)

Creation date: Oct. 22, 2025, 12:06 a.m.

Reference frame: TEME

Reference center: EARTH

Epoch: Oct. 21, 2025, 7:32 p.m. UTC

TLE line 0: 0 SL-8 R/B

TLE line 1: 1 22007U 92036B 25294.81407404 .00000114 00000-0 97095-4 0 9991

TLE line 2: 2 22007 82.9352 187.9537 0031478 55.4564 304.9558 13.78253168603090

Live tracking on map

Real-time ground track for satellite SL-8 R/B.

In-orbit conjunctions

A list of the most updated potential collisions computed for object SL-8 R/B.

Target Orbit TCA Probability of collision Miss distance Type
PSLV DEB SSO 2025-04-08 15:18:18 0.0004176966 126.0 (m) DEBRIS
COSMOS 1275 DEB LEO 2024-07-25 06:28:25 0.0001548263 833.0 (m) DEBRIS

Associated space launch

Navigation satellite providing location information for the Tsiklon-B navigation system

SL-8 R/B was lifted into orbit during the mission ‘Kosmos-3M | Parus 77’, on board a Kosmos-3M space rocket.

The launch took place on July 1, 1992, 8:16 p.m. from 133/3 (133L).

For more information about the launch, click the button.

Launch to space Kosmos-3M | Parus 77
Kosmos-3M | Parus 77

Agency: N/A

Status: Launch Successful

Launch date: July 1, 1992, 8:16 p.m. UTC

Rocket: Kosmos-3M

Launch pad: 133/3 (133L)

Location: Plesetsk Cosmodrome, Russian Federation

...

Latest news about this satellite

There are no fresh news available about this satellite. Check back as we update our databases every day.


Newsletter sign-up

Weekly statistics, charts and insights to help you stay on top of the space industry.